Participated 10 times
Between 1986 and 1995
Bruno Cornillet, France
Tour de France 2026 starts from Barcelona, Spain in

Stats and Facts from
Tour de France.

2026   2025   2024   2023  2022  2021  2020  2019   2018  2017   2016   2015  2014  2013   2012   2011  2010   2009   2008   2007   2006   2005   2004   2003   2002   2001   2000   1999   1998   1997  1996   1995   1994   1993   1992  1991   1990   1989   1988   1987   1986   1985   1984   1983  1982  1981   1980   1979  1978  1977   1976  1975  1974  1973   1972   1971   1970  1969   1968   1967   1966   1965  1964  1963   1962   1961   1960   1959   1958   1957  1956   1955   1954   1953   1952  1951  1950  1949   1948  1947  1939   1938   1937   1936   1935   1934   1933  1932   1931   1930  1929   1928   1927   1926  1925  1924  1923   1922   1921   1920   1919  1914   1913   1912   1911   1910  1909   1908   1907   1906  1905  1904   1903 

Tourstats
Sitemap

After stage 21 - 2025:
 16451 starters.
  5463 different riders.
  689 teams.
  2398 stages.
  470 restdays.
  466506.50 km.
  5925 abandoned riders.

Click map for 1951 route.
Facts from Tour de France 1951 Additional info and images from 1951.
  |   Stages.  |   Stage winners.  |   Days in jerseys.  |   Teams.  |   All riders.  |   All riders by age.  |   All riders from.  |  

  |   Rookies.  |   Withdrawls.  |   Average speed.  |   GC.  |   Polka  |   Green  |   White  |   Summits. (In tour)  |   Miscellaneous.  |  

Stage 16 on July 20th. 1951
Pick a stage:  1  2  3  4  5  6  7  8  9  10  11  12  13  14  15  16  17  18  19  20  21  22  23  24  

After stage 16:    Hugo Koblet  
  CarcassonneMontpellier | Dist: 192.00km. | Winner: Hugo Koblet

Podium

Average speed for all riders in stage:  33,349 km./hr.

1
 Hugo Koblet  Switzerland05h 27' 14"=35,204  km/h

2
 Jacques Marinelli  Île-de-France05h 27' 14"=35,204  km/h

3
 Raphaël Geminiani  France05h 27' 14"=35,204  km/h

4  Lucien Lazarides  France05h 27' 14"=35,204  km/h

5  Pierre Barbotin  France05h 27' 14"=35,204  km/h

6  Gino Bartali  Italy05h 31' 28"+  00:04:14 =34,755  km/h

7  André Labeylie  Île-de-France05h 31' 28"+  00:04:14 =34,755  km/h

8  Louison Bobet  France05h 31' 28"+  00:04:14 =34,755  km/h

9  Stan Ockers  Belgium05h 32' 48"+  00:05:34 =34,615  km/h

10  Marcel Verschueren  Belgium05h 32' 48"+  00:05:34 =34,615  km/h

11  Jean Diederich  Luxembourg05h 32' 48"+  00:05:34 =34,615  km/h

12  Marcel De Mulder  Belgium05h 32' 48"+  00:05:34 =34,615  km/h

13  Alois De Hertog  Belgium05h 32' 48"+  00:05:34 =34,615  km/h

14  Nello Lauredi  France05h 32' 48"+  00:05:34 =34,615  km/h

15  Fiorenzo Magni  Italy05h 32' 48"+  00:05:34 =34,615  km/h

16  Bernard Gauthier  France05h 32' 48"+  00:05:34 =34,615  km/h

17  Eduard Van Ende  Belgium05h 32' 48"+  00:05:34 =34,615  km/h

21  Vincent Vitetta  Est-Sud Est05h 32' 48"+  00:05:34 =34,615  km/h

22  Louis Caput  Paris05h 32' 48"+  00:05:34 =34,615  km/h

23  Francisco Masip  Spain05h 32' 48"+  00:05:34 =34,615  km/h

24  Jean-Baptiste Dotto  Est-Sud Est05h 32' 48"+  00:05:34 =34,615  km/h

25  Edouard Muller  France05h 32' 48"+  00:05:34 =34,615  km/h

18  Gilbert Bauvin  Est-Sud Est05h 39' 14"+  00:12:00 =33,959  km/h

19  Angelo Colinelli  Est-Sud Est05h 40' 12"+  00:12:58 =33,862  km/h

20  Gino Sciardis  Île-de-France05h 40' 12"+  00:12:58 =33,862  km/h

26  Roger Leveque  Ouest-Sud Ouest05h 40' 20"+  00:13:06 =33,849  km/h

27  Bernardo Ruíz  Spain05h 40' 20"+  00:13:06 =33,849  km/h

28  André Rosseel  Belgium05h 40' 20"+  00:13:06 =33,849  km/h

29  Pierre Cogan  Ouest-Sud Ouest05h 40' 20"+  00:13:06 =33,849  km/h

30  Jean-Marie Goasmat  Ouest-Sud Ouest05h 40' 20"+  00:13:06 =33,849  km/h

31  Georges Aeschlimann  Switzerland05h 40' 20"+  00:13:06 =33,849  km/h

32  Pierre Brambilla  Est-Sud Est05h 40' 20"+  00:13:06 =33,849  km/h

33  José Serra Gil  Spain05h 40' 20"+  00:13:06 =33,849  km/h

34  Roger Decock  Belgium05h 40' 20"+  00:13:06 =33,849  km/h

35  Louis Deprez  Île-de-France05h 40' 20"+  00:13:06 =33,849  km/h

36  Abdel-Kader Zaaf  North Africa05h 40' 41"+  00:13:27 =33,814  km/h

37  Raoul Remy  France05h 44' 47"+  00:17:33 =33,412  km/h

38  Hans Sommer  Switzerland05h 48' 00"+  00:20:46 =33,103  km/h

39  Georges Meunier  Ouest-Sud Ouest05h 48' 00"+  00:20:46 =33,103  km/h

40  Jean Baldassari  France05h 48' 00"+  00:20:46 =33,103  km/h

41  Lucien Teisseire  France05h 48' 00"+  00:20:46 =33,103  km/h

42  Leo Weilenmann  Switzerland05h 48' 00"+  00:20:46 =33,103  km/h

43  Jean Robic  Paris05h 48' 00"+  00:20:46 =33,103  km/h

44  Marcel Huber  Switzerland05h 48' 00"+  00:20:46 =33,103  km/h

45  Paul Giguet  Est-Sud Est05h 48' 00"+  00:20:46 =33,103  km/h

46  Gottfried Weilenmann  Switzerland05h 48' 00"+  00:20:46 =33,103  km/h

47  Henri Kass  Luxembourg05h 48' 00"+  00:20:46 =33,103  km/h

48  Jean Gueguen  France05h 48' 00"+  00:20:46 =33,103  km/h

49  Jean-Apotre Lazarides  France05h 48' 00"+  00:20:46 =33,103  km/h

50  Manuel Rodriguez  Spain05h 48' 00"+  00:20:46 =33,103  km/h

51  Jean Delahaye  Île-de-France05h 53' 21"+  00:26:07 =32,602  km/h

52  Roger Buchonnet  Est-Sud Est05h 53' 25"+  00:26:11 =32,596  km/h

53  Jean Mayen  North Africa05h 53' 25"+  00:26:11 =32,596  km/h

54  Jean-Louis Carle  Paris05h 53' 25"+  00:26:11 =32,596  km/h

55  Adolphe Deledda  Est-Sud Est05h 53' 25"+  00:26:11 =32,596  km/h

56  Emile Baffert  Est-Sud Est05h 53' 25"+  00:26:11 =32,596  km/h

57  Giuseppe Mirando  Est-Sud Est05h 53' 25"+  00:26:11 =32,596  km/h

58  Willy Kemp  Luxembourg05h 53' 25"+  00:26:11 =32,596  km/h

59  Germain Derycke  Belgium05h 54' 49"+  00:27:35 =32,467  km/h

60  Dalmácio Langarica  Spain05h 54' 49"+  00:27:35 =32,467  km/h

61  Hilaire Couvreur  Belgium05h 54' 55"+  00:27:41 =32,458  km/h

62  Armand Baeyens  Belgium05h 55' 15"+  00:28:01 =32,428  km/h

63  Luciano Pezzi  Italy06h 00' 47"+  00:33:33 =31,931  km/h

64  Fausto Coppi  Italy06h 00' 47"+  00:33:33 =31,931  km/h

65  Miguel Gual Bauza  Spain06h 00' 47"+  00:33:33 =31,931  km/h

66  Ettore Milano  Italy06h 00' 47"+  00:33:33 =31,931  km/h

67  Serifano Biagioni  Italy06h 00' 47"+  00:33:33 =31,931  km/h

68  Virgilio Salimbeni  Italy06h 00' 47"+  00:33:33 =31,931  km/h

69  Roger Walkowiak  Ouest-Sud Ouest06h 00' 47"+  00:33:33 =31,931  km/h

70  Andrea Carrea  Italy06h 00' 47"+  00:33:33 =31,931  km/h

71  Franco Franchi  Italy06h 00' 47"+  00:33:33 =31,931  km/h

72  Joseph Morvan  Ouest-Sud Ouest06h 10' 18"+  00:43:04 =31,110  km/h

73  Robert Castelin  Est-Sud Est06h 12' 29"+  00:45:15 =30,928  km/h

74  Maurice Diot  Paris06h 12' 29"+  00:45:15 =30,928  km/h

75  Alois Vansteenkiste  Belgium06h 16' 00"+  00:48:46 =30,638  km/h


Withdrawls: 2
 RiderTeamReason
74   Robert Bonnaventure ParisDid not finish
116   Andre Mahé Ouest-Sud OuestDid not finish
Todays birthdays.

1869 • Adolphe Dorion
1884 • Achille Germain
1886 • Emile Eigeldinger
1896 • Andre Léger
1907 • Frans Dictus
1921 • Alberto Ghirardi
1934 • Joseph Planckaert
1945 • Leif Mortensen
1952 • Alex Van Linden
1960 • Roberto Bressan
1960 • Bernard Chesneau
1962 • Paul Watson
1963 • Juan Rozas
1965 • Jean-Pierre Heynderickx
1967 • José-Manuel Oliveira
1970 • Wilfried Nelissen
1980 • Nick Nuyens
1996 • Jai Hindley

 

Optimized for Chrome - Edge
and Opera browsers.